| time (UTC) | temp F | wind direction | speed MPH | gust MPH | rain 1hr in | rain 24hr in | rain mn in | humidity % | barometer mb |
| 20260901014418 | 67 | 240 | 0.0 | 3.0 | 0.00 | 0.04 | 0.01 | 86 | 1020.1 |
| 20260901013908 | 67 | 242 | 0.0 | 3.0 | 0.00 | 0.04 | 0.01 | 85 | 1020.0 |
| 20260901013407 | 67 | 175 | 1.0 | 3.0 | 0.00 | 0.04 | 0.01 | 85 | 1020.0 |
| 20260901012900 | 67 | 175 | 1.0 | 4.0 | 0.00 | 0.04 | 0.01 | 85 | 1020.0 |
| 20260901012352 | 67 | 173 | 1.0 | 4.0 | 0.00 | 0.04 | 0.01 | 85 | 1020.0 |
| 20260901011851 | 67 | 183 | 2.0 | 4.0 | 0.00 | 0.04 | 0.01 | 85 | 1019.9 |
| 20260901011351 | 67 | 203 | 1.0 | 4.0 | 0.00 | 0.04 | 0.01 | 84 | 1020.0 |
| 20260901011110 | 67 | 179 | 2.0 | 3.0 | 0.00 | 0.04 | 0.01 | 84 | 1020.0 |
| 20260901010350 | 67 | 181 | 0.0 | 3.0 | 0.00 | 0.04 | 0.01 | 84 | 1019.9 |
| 20260901005850 | 67 | 186 | 0.0 | 3.0 | 0.00 | 0.04 | 0.01 | 84 | 1019.9 |
| 20260901005349 | 67 | 179 | 1.0 | 4.0 | 0.00 | 0.04 | 0.01 | 84 | 1019.9 |
| 20260901004848 | 67 | 195 | 0.0 | 5.0 | 0.00 | 0.04 | 0.01 | 84 | 1019.9 |
| 20260901004346 | 67 | 181 | 2.0 | 6.0 | 0.00 | 0.04 | 0.01 | 83 | 1019.9 |
| 20260901003844 | 67 | 201 | 2.0 | 6.0 | 0.00 | 0.04 | 0.01 | 83 | 1019.9 |
| 20260901003345 | 67 | 190 | 2.0 | 5.0 | 0.00 | 0.04 | 0.01 | 83 | 1019.9 |
| 20260901002844 | 67 | 198 | 2.0 | 4.0 | 0.00 | 0.04 | 0.01 | 82 | 1019.9 |
| 20260901002341 | 67 | 198 | 1.0 | 4.0 | 0.00 | 0.04 | 0.01 | 82 | 1020.0 |
| 20260901001841 | 67 | 195 | 1.0 | 3.0 | 0.00 | 0.04 | 0.01 | 82 | 1019.9 |
| 20260901001339 | 67 | 196 | 1.0 | 5.0 | 0.00 | 0.04 | 0.01 | 81 | 1020.0 |
| 20260901001051 | 66 | 195 | 2.0 | 5.0 | 0.00 | 0.04 | 0.01 | 81 | 1020.0 |
| 20260901000331 | 66 | 197 | 3.0 | 5.0 | 0.00 | 0.04 | 0.01 | 81 | 1019.9 |
| 20260831235830 | 66 | 198 | 2.0 | 5.0 | 0.00 | 0.04 | 0.01 | 81 | 1020.0 |
| 20260831235328 | 66 | 159 | 1.0 | 4.0 | 0.00 | 0.04 | 0.01 | 81 | 1020.0 |
| 20260831234828 | 66 | 202 | 1.0 | 4.0 | 0.00 | 0.04 | 0.01 | 81 | 1019.9 |
| 20260831234326 | 66 | 195 | 1.0 | 3.0 | 0.00 | 0.04 | 0.01 | 81 | 1019.9 |
| 20260831233818 | 66 | 196 | 2.0 | 4.0 | 0.00 | 0.04 | 0.01 | 80 | 1020.0 |
| 20260831233318 | 66 | 181 | 2.0 | 4.0 | 0.00 | 0.04 | 0.01 | 80 | 1020.1 |
| 20260831233036 | 66 | 202 | 0.0 | 4.0 | 0.00 | 0.04 | 0.01 | 79 | 1020.1 |
| 20260831232309 | 67 | 195 | 2.0 | 3.0 | 0.00 | 0.04 | 0.01 | 78 | 1020.1 |
| 20260831231808 | 67 | 192 | 1.0 | 4.0 | 0.00 | 0.04 | 0.01 | 78 | 1020.1 |
| 20260831231307 | 67 | 192 | 1.0 | 4.0 | 0.00 | 0.04 | 0.01 | 78 | 1020.1 |
| 20260831230805 | 67 | 200 | 1.0 | 3.0 | 0.00 | 0.04 | 0.01 | 77 | 1020.1 |
| 20260831230304 | 67 | 198 | 1.0 | 3.0 | 0.00 | 0.04 | 0.01 | 77 | 1020.2 |
| 20260831230022 | 67 | 199 | 1.0 | 3.0 | 0.00 | 0.04 | 0.01 | 76 | 1020.2 |
| 20260831225306 | 67 | 205 | 1.0 | 6.0 | 0.00 | 0.04 | 0.01 | 76 | 1020.3 |
| 20260831225029 | 67 | 205 | 3.0 | 6.0 | 0.00 | 0.04 | 0.01 | 75 | 1020.3 |
| 20260831224511 | 68 | 186 | 2.0 | 6.0 | 0.00 | 0.04 | 0.01 | 75 | 1020.2 |
| 20260831224017 | 68 | 187 | 2.0 | 6.0 | 0.00 | 0.04 | 0.01 | 75 | 1020.2 |
| 20260831223253 | 68 | 195 | 2.0 | 5.0 | 0.00 | 0.04 | 0.01 | 75 | 1020.2 |
| 20260831223021 | 68 | 166 | 2.0 | 6.0 | 0.00 | 0.04 | 0.01 | 75 | 1020.2 |
| 20260831222251 | 68 | 191 | 2.0 | 6.0 | 0.00 | 0.04 | 0.01 | 74 | 1020.2 |
| 20260831221753 | 68 | 112 | 2.0 | 6.0 | 0.00 | 0.04 | 0.01 | 74 | 1020.2 |
| 20260831221247 | 68 | 211 | 3.0 | 6.0 | 0.00 | 0.04 | 0.01 | 75 | 1020.3 |
| 20260831220745 | 68 | 193 | 2.0 | 7.0 | 0.00 | 0.04 | 0.01 | 77 | 1020.2 |
| 20260831220243 | 68 | 209 | 2.0 | 7.0 | 0.00 | 0.04 | 0.01 | 77 | 1020.3 |
| 20260831220003 | 68 | 172 | 3.0 | 5.0 | 0.00 | 0.04 | 0.01 | 77 | 1020.3 |
| 20260831215244 | 68 | 185 | 3.0 | 7.0 | 0.00 | 0.04 | 0.01 | 76 | 1020.4 |
| 20260831214744 | 68 | 190 | 4.0 | 7.0 | 0.00 | 0.04 | 0.01 | 76 | 1020.5 |
| 20260831214241 | 69 | 199 | 4.0 | 7.0 | 0.00 | 0.04 | 0.01 | 76 | 1020.4 |
| 20260831213741 | 69 | 181 | 4.0 | 7.0 | 0.00 | 0.04 | 0.01 | 75 | 1020.5 |
| 20260831213241 | 69 | 222 | 4.0 | 7.0 | 0.00 | 0.04 | 0.01 | 75 | 1020.5 |
| 20260831212740 | 69 | 170 | 3.0 | 7.0 | 0.00 | 0.04 | 0.01 | 75 | 1020.5 |
| 20260831212241 | 69 | 160 | 3.0 | 7.0 | 0.00 | 0.04 | 0.01 | 75 | 1020.5 |
| 20260831211739 | 69 | 192 | 3.0 | 7.0 | 0.00 | 0.04 | 0.01 | 75 | 1020.5 |
| 20260831211236 | 69 | 147 | 4.0 | 6.0 | 0.00 | 0.04 | 0.01 | 75 | 1020.5 |
| 20260831210736 | 69 | 198 | 3.0 | 7.0 | 0.00 | 0.04 | 0.01 | 76 | 1020.6 |
| 20260831210235 | 68 | 181 | 3.0 | 8.0 | 0.00 | 0.04 | 0.01 | 76 | 1020.6 |
| 20260831205736 | 68 | 165 | 5.0 | 9.0 | 0.00 | 0.04 | 0.01 | 76 | 1020.5 |
| 20260831205234 | 68 | 161 | 4.0 | 9.0 | 0.00 | 0.04 | 0.01 | 76 | 1020.5 |
| 20260831204731 | 69 | 203 | 4.0 | 8.0 | 0.00 | 0.04 | 0.01 | 76 | 1020.6 |
| 20260831204230 | 69 | 195 | 5.0 | 9.0 | 0.00 | 0.04 | 0.01 | 75 | 1020.5 |
| 20260831203728 | 69 | 208 | 5.0 | 9.0 | 0.00 | 0.04 | 0.01 | 75 | 1020.6 |
| 20260831203229 | 69 | 224 | 5.0 | 9.0 | 0.00 | 0.04 | 0.01 | 75 | 1020.5 |
| 20260831202727 | 69 | 155 | 4.0 | 8.0 | 0.00 | 0.04 | 0.01 | 76 | 1020.5 |
| 20260831202226 | 69 | 205 | 5.0 | 6.0 | 0.00 | 0.04 | 0.01 | 75 | 1020.5 |
| 20260831201724 | 69 | 96 | 3.0 | 7.0 | 0.00 | 0.04 | 0.01 | 76 | 1020.5 |
| 20260831201224 | 69 | 207 | 3.0 | 7.0 | 0.00 | 0.04 | 0.01 | 76 | 1020.6 |
| 20260831200722 | 69 | 150 | 3.0 | 7.0 | 0.00 | 0.04 | 0.01 | 77 | 1020.5 |
| 20260831200223 | 68 | 200 | 2.0 | 7.0 | 0.00 | 0.04 | 0.01 | 77 | 1020.6 |
| 20260831195723 | 68 | 205 | 3.0 | 7.0 | 0.00 | 0.04 | 0.01 | 77 | 1020.7 |
| 20260831195221 | 68 | 212 | 5.0 | 7.0 | 0.00 | 0.04 | 0.01 | 76 | 1020.7 |
| 20260831194718 | 68 | 153 | 4.0 | 7.0 | 0.00 | 0.04 | 0.01 | 76 | 1020.6 |
| 20260831194219 | 68 | 167 | 4.0 | 7.0 | 0.00 | 0.04 | 0.01 | 76 | 1020.8 |
| 20260831193716 | 68 | 160 | 4.0 | 7.0 | 0.00 | 0.04 | 0.01 | 76 | 1020.9 |
| 20260831193216 | 68 | 139 | 3.0 | 6.0 | 0.00 | 0.04 | 0.01 | 75 | 1020.8 |
| 20260831192715 | 68 | 209 | 3.0 | 6.0 | 0.00 | 0.04 | 0.01 | 74 | 1021.0 |
| 20260831192217 | 69 | 185 | 2.0 | 8.0 | 0.00 | 0.04 | 0.01 | 74 | 1020.8 |
| 20260831191716 | 69 | 193 | 3.0 | 8.0 | 0.00 | 0.04 | 0.01 | 73 | 1020.9 |
| 20260831191213 | 69 | 191 | 3.0 | 7.0 | 0.00 | 0.04 | 0.01 | 73 | 1020.9 |
| 20260831190712 | 69 | 176 | 2.0 | 6.0 | 0.00 | 0.04 | 0.01 | 72 | 1021.0 |
| 20260831190213 | 69 | 210 | 2.0 | 5.0 | 0.00 | 0.04 | 0.01 | 71 | 1021.1 |
| 20260831185714 | 69 | 186 | 2.0 | 7.0 | 0.00 | 0.04 | 0.01 | 71 | 1021.2 |
| 20260831185435 | 69 | 188 | 2.0 | 7.0 | 0.00 | 0.04 | 0.01 | 70 | 1021.4 |
| 20260831184711 | 69 | 154 | 3.0 | 8.0 | 0.00 | 0.04 | 0.01 | 70 | 1021.4 |
| 20260831184209 | 69 | 195 | 4.0 | 8.0 | 0.00 | 0.04 | 0.01 | 69 | 1021.4 |
| 20260831183709 | 69 | 177 | 2.0 | 3.0 | 0.00 | 0.04 | 0.01 | 71 | 1021.4 |
| 20260831183207 | 69 | 176 | 2.0 | 5.0 | 0.00 | 0.04 | 0.01 | 70 | 1021.4 |
| 20260831182709 | 69 | 174 | 2.0 | 5.0 | 0.00 | 0.04 | 0.01 | 70 | 1021.4 |
| 20260831182427 | 69 | 198 | 1.0 | 4.0 | 0.00 | 0.04 | 0.01 | 70 | 1021.3 |
| 20260831181706 | 69 | 168 | 1.0 | 4.0 | 0.00 | 0.04 | 0.01 | 69 | 1021.4 |
| 20260831181204 | 69 | 262 | 1.0 | 4.0 | 0.00 | 0.04 | 0.01 | 69 | 1021.4 |
| 20260831180702 | 69 | 129 | 2.0 | 5.0 | 0.00 | 0.04 | 0.01 | 69 | 1021.4 |
| 20260831180202 | 69 | 176 | 2.0 | 5.0 | 0.00 | 0.04 | 0.01 | 69 | 1021.3 |
| 20260831175703 | 69 | 204 | 2.0 | 5.0 | 0.00 | 0.04 | 0.01 | 68 | 1021.4 |
| 20260831175202 | 69 | 162 | 1.0 | 5.0 | 0.00 | 0.04 | 0.01 | 69 | 1021.7 |
| 20260831174653 | 69 | 130 | 2.0 | 5.0 | 0.00 | 0.04 | 0.01 | 68 | 1021.8 |
| 20260831174153 | 69 | 229 | 1.0 | 4.0 | 0.00 | 0.04 | 0.01 | 69 | 1021.8 |
| 20260831173651 | 69 | 219 | 2.0 | 4.0 | 0.00 | 0.04 | 0.01 | 69 | 1021.8 |
| 20260831173151 | 69 | 174 | 2.0 | 4.0 | 0.00 | 0.04 | 0.01 | 70 | 1021.8 |
| 20260831172912 | 69 | 229 | 1.0 | 4.0 | 0.00 | 0.04 | 0.01 | 69 | 1021.9 |
| 20260831172151 | 69 | 53 | 0.0 | 2.0 | 0.00 | 0.04 | 0.01 | 71 | 1021.8 |
| 20260831171651 | 69 | 95 | 0.0 | 3.0 | 0.00 | 0.04 | 0.01 | 69 | 1021.8 |
| 20260831171143 | 70 | 96 | 1.0 | 5.0 | 0.00 | 0.04 | 0.01 | 70 | 1021.9 |
| 20260831170635 | 70 | 51 | 3.0 | 5.0 | 0.00 | 0.04 | 0.01 | 69 | 1021.9 |
| 20260831170136 | 70 | 44 | 2.0 | 5.0 | 0.00 | 0.04 | 0.01 | 70 | 1021.9 |
| 20260831165622 | 70 | 49 | 2.0 | 3.0 | 0.00 | 0.04 | 0.01 | 70 | 1021.9 |
| 20260831165116 | 70 | 41 | 1.0 | 4.0 | 0.00 | 0.04 | 0.01 | 70 | 1022.0 |
| 20260831164613 | 70 | 44 | 2.0 | 4.0 | 0.00 | 0.04 | 0.01 | 69 | 1022.1 |
| 20260831164118 | 71 | 48 | 2.0 | 5.0 | 0.00 | 0.04 | 0.01 | 69 | 1022.3 |
| 20260831163612 | 71 | 33 | 1.0 | 5.0 | 0.00 | 0.04 | 0.01 | 69 | 1022.3 |
| 20260831163112 | 71 | 229 | 1.0 | 4.0 | 0.00 | 0.04 | 0.01 | 69 | 1022.1 |
| 20260831162611 | 71 | 82 | 1.0 | 4.0 | 0.00 | 0.04 | 0.01 | 68 | 1022.1 |
| 20260831162109 | 71 | 70 | 1.0 | 3.0 | 0.00 | 0.04 | 0.01 | 69 | 1022.3 |
| 20260831161830 | 71 | 79 | 1.0 | 4.0 | 0.00 | 0.04 | 0.01 | 70 | 1022.3 |
| 20260831161106 | 71 | 91 | 2.0 | 4.0 | 0.00 | 0.04 | 0.01 | 69 | 1022.3 |
| 20260831160823 | 71 | 22 | 1.0 | 3.0 | 0.00 | 0.04 | 0.01 | 68 | 1022.4 |
| 20260831160105 | 71 | 1 | 1.0 | 3.0 | 0.00 | 0.04 | 0.01 | 67 | 1022.5 |
| 20260831155549 | 71 | 1 | 1.0 | 6.0 | 0.00 | 0.04 | 0.01 | 69 | 1022.4 |
| 20260831155049 | 71 | 29 | 4.0 | 6.0 | 0.00 | 0.04 | 0.01 | 68 | 1022.6 |
| 20260831154547 | 71 | 30 | 2.0 | 5.0 | 0.00 | 0.04 | 0.01 | 69 | 1022.5 |
| 20260831154046 | 71 | 26 | 2.0 | 5.0 | 0.00 | 0.04 | 0.01 | 68 | 1022.4 |
| 20260831153543 | 71 | 48 | 2.0 | 5.0 | 0.00 | 0.04 | 0.01 | 68 | 1022.6 |
| 20260831153058 | 71 | 26 | 2.0 | 6.0 | 0.00 | 0.04 | 0.01 | 70 | 1022.5 |
| 20260831152536 | 71 | 47 | 2.0 | 6.0 | 0.00 | 0.04 | 0.01 | 69 | 1022.6 |
| 20260831152029 | 71 | 56 | 1.0 | 5.0 | 0.00 | 0.04 | 0.01 | 69 | 1022.6 |
| 20260831151520 | 72 | 49 | 1.0 | 5.0 | 0.00 | 0.04 | 0.01 | 68 | 1022.5 |
| 20260831151021 | 72 | 37 | 2.0 | 5.0 | 0.00 | 0.04 | 0.01 | 68 | 1022.4 |
| 20260831150520 | 72 | 61 | 1.0 | 4.0 | 0.00 | 0.04 | 0.01 | 70 | 1022.4 |
| 20260831150019 | 72 | 49 | 2.0 | 4.0 | 0.00 | 0.04 | 0.01 | 70 | 1022.3 |
| 20260831145519 | 71 | 51 | 2.0 | 4.0 | 0.00 | 0.04 | 0.01 | 71 | 1022.4 |
| 20260831145013 | 71 | 49 | 1.0 | 5.0 | 0.00 | 0.04 | 0.01 | 70 | 1022.4 |
| 20260831144511 | 71 | 54 | 1.0 | 5.0 | 0.00 | 0.04 | 0.01 | 69 | 1022.3 |
| 20260831144008 | 71 | 36 | 0.0 | 5.0 | 0.00 | 0.04 | 0.01 | 69 | 1022.4 |
| 20260831143506 | 71 | 20 | 3.0 | 5.0 | 0.00 | 0.04 | 0.01 | 69 | 1022.3 |
| 20260831143239 | 72 | 44 | 1.0 | 2.0 | 0.00 | 0.04 | 0.01 | 68 | 1022.2 |
| 20260831142506 | 72 | 44 | 1.0 | 3.0 | 0.00 | 0.04 | 0.01 | 68 | 1022.0 |
| 20260831142005 | 73 | 47 | 1.0 | 3.0 | 0.00 | 0.04 | 0.01 | 69 | 1022.1 |
| 20260831141503 | 72 | 47 | 1.0 | 4.0 | 0.00 | 0.04 | 0.01 | 69 | 1022.1 |
| 20260831141442 | 72 | 49 | 1.0 | 4.0 | 0.00 | 0.04 | 0.01 | 70 | 1022.1 |
| 20260831140504 | 72 | 44 | 1.0 | 4.0 | 0.00 | 0.04 | 0.01 | 70 | 1022.2 |
| 20260831140005 | 72 | 51 | 2.0 | 4.0 | 0.00 | 0.04 | 0.01 | 70 | 1022.1 |
| 20260831135501 | 72 | 58 | 1.0 | 5.0 | 0.00 | 0.04 | 0.01 | 71 | 1022.1 |
| 20260831135002 | 72 | 58 | 1.0 | 5.0 | 0.00 | 0.04 | 0.01 | 72 | 1022.0 |
| 20260831134459 | 72 | 14 | 0.0 | 5.0 | 0.00 | 0.04 | 0.01 | 73 | 1022.0 |
| 20260831134223 | 71 | 12 | 3.0 | 5.0 | 0.00 | 0.04 | 0.01 | 71 | 1022.0 |
| 20260831133500 | 71 | 64 | 1.0 | 5.0 | 0.00 | 0.04 | 0.01 | 71 | 1022.0 |
| 20260831133447 | 71 | 63 | 0.0 | 6.0 | 0.00 | 0.04 | 0.01 | 72 | 1022.0 |
| 20260831132457 | 71 | 31 | 1.0 | 6.0 | 0.00 | 0.04 | 0.01 | 73 | 1022.0 |
| 20260831131957 | 71 | 78 | 2.0 | 5.0 | 0.00 | 0.04 | 0.01 | 73 | 1021.9 |
| 20260831131456 | 71 | 63 | 0.0 | 6.0 | 0.00 | 0.04 | 0.01 | 74 | 1021.8 |
| 20260831130956 | 70 | 51 | 2.0 | 6.0 | 0.00 | 0.04 | 0.01 | 73 | 1021.8 |
| 20260831130722 | 70 | 50 | 3.0 | 6.0 | 0.00 | 0.04 | 0.01 | 73 | 1021.9 |
| 20260831125948 | 70 | 35 | 1.0 | 5.0 | 0.00 | 0.04 | 0.01 | 75 | 1021.9 |
| 20260831125443 | 70 | 359 | 0.0 | 4.0 | 0.00 | 0.04 | 0.01 | 75 | 1021.9 |
| 20260831124943 | 70 | 359 | 1.0 | 4.0 | 0.00 | 0.04 | 0.01 | 76 | 1021.8 |
| 20260831124443 | 69 | 1 | 2.0 | 6.0 | 0.00 | 0.04 | 0.01 | 77 | 1021.8 |
| 20260831123942 | 69 | 56 | 2.0 | 7.0 | 0.00 | 0.04 | 0.01 | 77 | 1021.8 |
| 20260831123706 | 68 | 65 | 4.0 | 7.0 | 0.00 | 0.04 | 0.01 | 77 | 1021.6 |
| 20260831122942 | 68 | 44 | 2.0 | 5.0 | 0.00 | 0.04 | 0.01 | 79 | 1021.6 |
| 20260831122441 | 68 | 28 | 2.0 | 6.0 | 0.00 | 0.04 | 0.01 | 79 | 1021.6 |
| 20260831121940 | 68 | 24 | 3.0 | 6.0 | 0.00 | 0.04 | 0.01 | 79 | 1021.4 |
| 20260831121438 | 68 | 3 | 1.0 | 5.0 | 0.00 | 0.04 | 0.01 | 79 | 1021.4 |
| 20260831120937 | 68 | 333 | 2.0 | 6.0 | 0.00 | 0.04 | 0.01 | 78 | 1021.4 |
| 20260831120437 | 67 | 21 | 1.0 | 6.0 | 0.00 | 0.04 | 0.01 | 78 | 1021.4 |
| 20260831115938 | 67 | 43 | 3.0 | 5.0 | 0.00 | 0.04 | 0.01 | 78 | 1021.5 |
| 20260831115437 | 67 | 1 | 3.0 | 6.0 | 0.00 | 0.04 | 0.01 | 78 | 1021.4 |
| 20260831114937 | 67 | 58 | 4.0 | 8.0 | 0.00 | 0.04 | 0.01 | 79 | 1021.3 |
| 20260831114435 | 67 | 4 | 3.0 | 8.0 | 0.00 | 0.04 | 0.01 | 79 | 1021.2 |
| 20260831113936 | 67 | 38 | 3.0 | 7.0 | 0.00 | 0.04 | 0.01 | 79 | 1021.2 |
| 20260831113652 | 67 | 1 | 2.0 | 9.0 | 0.00 | 0.04 | 0.01 | 79 | 1021.2 |
| 20260831112930 | 67 | 38 | 3.0 | 9.0 | 0.00 | 0.04 | 0.01 | 79 | 1021.2 |
| 20260831112432 | 67 | 63 | 4.0 | 7.0 | 0.00 | 0.04 | 0.01 | 79 | 1021.1 |
| 20260831111924 | 67 | 14 | 4.0 | 8.0 | 0.00 | 0.04 | 0.01 | 79 | 1021.1 |
| 20260831111423 | 67 | 62 | 3.0 | 8.0 | 0.00 | 0.04 | 0.01 | 79 | 1021.0 |
| 20260831111155 | 67 | 37 | 4.0 | 7.0 | 0.00 | 0.04 | 0.01 | 79 | 1021.0 |
| 20260831110420 | 67 | 333 | 4.0 | 6.0 | 0.00 | 0.04 | 0.01 | 79 | 1021.0 |
| 20260831110141 | 67 | 16 | 1.0 | 7.0 | 0.00 | 0.04 | 0.01 | 78 | 1020.9 |
| 20260831105417 | 67 | 337 | 3.0 | 7.0 | 0.00 | 0.04 | 0.01 | 78 | 1020.9 |
| 20260831104917 | 67 | 59 | 3.0 | 7.0 | 0.00 | 0.04 | 0.01 | 78 | 1020.8 |
| 20260831104648 | 66 | 298 | 4.0 | 7.0 | 0.00 | 0.04 | 0.01 | 79 | 1020.9 |
| 20260831103915 | 66 | 33 | 3.0 | 7.0 | 0.00 | 0.04 | 0.01 | 80 | 1020.8 |
| 20260831103416 | 67 | 23 | 3.0 | 5.0 | 0.00 | 0.04 | 0.01 | 82 | 1020.7 |
| 20260831102915 | 67 | 354 | 3.0 | 7.0 | 0.00 | 0.04 | 0.01 | 82 | 1020.7 |
| 20260831102413 | 66 | 359 | 3.0 | 8.0 | 0.00 | 0.04 | 0.01 | 82 | 1020.6 |
| 20260831101912 | 66 | 56 | 2.0 | 8.0 | 0.00 | 0.04 | 0.01 | 82 | 1020.5 |
| 20260831101411 | 66 | 14 | 3.0 | 6.0 | 0.00 | 0.04 | 0.01 | 82 | 1020.4 |
| 20260831100912 | 66 | 49 | 3.0 | 6.0 | 0.00 | 0.04 | 0.01 | 83 | 1020.4 |
| 20260831100412 | 66 | 8 | 3.0 | 5.0 | 0.00 | 0.04 | 0.01 | 84 | 1020.4 |
| 20260831095910 | 66 | 36 | 2.0 | 6.0 | 0.00 | 0.04 | 0.01 | 85 | 1020.4 |
| 20260831095410 | 66 | 355 | 3.0 | 7.0 | 0.00 | 0.04 | 0.01 | 85 | 1020.4 |
| 20260831094909 | 66 | 47 | 1.0 | 7.0 | 0.00 | 0.04 | 0.01 | 86 | 1020.3 |
| 20260831094632 | 65 | 29 | 2.0 | 6.0 | 0.00 | 0.04 | 0.01 | 86 | 1020.2 |
| 20260831093908 | 65 | 38 | 1.0 | 4.0 | 0.00 | 0.04 | 0.01 | 86 | 1020.1 |
| 20260831093408 | 65 | 38 | 2.0 | 4.0 | 0.00 | 0.04 | 0.01 | 86 | 1020.2 |
| 20260831092907 | 65 | 59 | 2.0 | 4.0 | 0.00 | 0.04 | 0.01 | 86 | 1020.2 |
| 20260831092406 | 65 | 30 | 1.0 | 4.0 | 0.00 | 0.04 | 0.01 | 86 | 1020.1 |
| 20260831091905 | 66 | 44 | 1.0 | 2.0 | 0.00 | 0.04 | 0.01 | 86 | 1020.1 |
| 20260831091621 | 66 | 44 | 0.0 | 4.0 | 0.00 | 0.04 | 0.01 | 86 | 1020.0 |
| 20260831090904 | 66 | 44 | 2.0 | 4.0 | 0.00 | 0.04 | 0.01 | 86 | 1020.0 |
| 20260831090404 | 66 | 34 | 2.0 | 3.0 | 0.00 | 0.04 | 0.01 | 86 | 1020.1 |
| 20260831085902 | 66 | 36 | 1.0 | 3.0 | 0.00 | 0.04 | 0.01 | 86 | 1020.0 |
| 20260831085401 | 66 | 40 | 1.0 | 5.0 | 0.00 | 0.04 | 0.01 | 87 | 1020.1 |
| 20260831084902 | 66 | 58 | 2.0 | 5.0 | 0.00 | 0.04 | 0.01 | 87 | 1020.0 |
| 20260831084840 | 66 | 53 | 2.0 | 5.0 | 0.00 | 0.04 | 0.01 | 88 | 1020.0 |
| 20260831083859 | 67 | 48 | 2.0 | 5.0 | 0.00 | 0.04 | 0.01 | 88 | 1019.9 |
| 20260831083358 | 67 | 47 | 2.0 | 6.0 | 0.00 | 0.04 | 0.01 | 89 | 1019.8 |
| 20260831082857 | 67 | 347 | 2.0 | 6.0 | 0.00 | 0.04 | 0.01 | 89 | 1019.6 |
| 20260831082625 | 67 | 32 | 2.0 | 5.0 | 0.00 | 0.04 | 0.01 | 89 | 1019.7 |
| 20260831081856 | 67 | 56 | 1.0 | 5.0 | 0.00 | 0.04 | 0.01 | 89 | 1019.7 |
| 20260831081355 | 67 | 10 | 1.0 | 4.0 | 0.00 | 0.04 | 0.01 | 89 | 1019.4 |
| 20260831080854 | 67 | 68 | 2.0 | 4.0 | 0.00 | 0.04 | 0.01 | 90 | 1019.4 |
| 20260831080352 | 67 | 36 | 2.0 | 4.0 | 0.00 | 0.04 | 0.01 | 90 | 1019.4 |
| 20260831075850 | 67 | 29 | 2.0 | 4.0 | 0.00 | 0.04 | 0.01 | 90 | 1019.2 |
| 20260831075352 | 67 | 41 | 1.0 | 4.0 | 0.00 | 0.04 | 0.01 | 90 | 1019.2 |
| 20260831074851 | 67 | 31 | 0.0 | 4.0 | 0.00 | 0.04 | 0.01 | 90 | 1019.2 |
| 20260831074351 | 67 | 20 | 1.0 | 5.0 | 0.00 | 0.04 | 0.01 | 90 | 1019.1 |
| 20260831073842 | 67 | 205 | 2.0 | 5.0 | 0.00 | 0.04 | 0.01 | 90 | 1019.0 |
| 20260831073344 | 67 | 19 | 1.0 | 6.0 | 0.00 | 0.04 | 0.01 | 90 | 1019.0 |
| 20260831072842 | 67 | 352 | 3.0 | 6.0 | 0.00 | 0.04 | 0.01 | 90 | 1018.8 |
| 20260831072333 | 67 | 42 | 2.0 | 6.0 | 0.00 | 0.04 | 0.01 | 90 | 1018.7 |
| 20260831071833 | 67 | 44 | 2.0 | 6.0 | 0.00 | 0.04 | 0.01 | 91 | 1018.8 |
| 20260831071553 | 67 | 63 | 2.0 | 6.0 | 0.00 | 0.04 | 0.01 | 91 | 1018.8 |
| 20260831070831 | 67 | 51 | 2.0 | 4.0 | 0.00 | 0.04 | 0.01 | 91 | 1018.8 |
| 20260831070316 | 67 | 47 | 1.0 | 4.0 | 0.00 | 0.04 | 0.01 | 91 | 1018.8 |
| 20260831065816 | 67 | 37 | 1.0 | 4.0 | 0.00 | 0.04 | 0.01 | 91 | 1018.8 |
| 20260831065807 | 66 | 37 | 2.0 | 4.0 | 0.00 | 0.04 | 0.01 | 92 | 1018.8 |
| 20260831064813 | 67 | 36 | 2.0 | 4.0 | 0.00 | 0.04 | 0.01 | 92 | 1018.7 |
| 20260831064313 | 67 | 37 | 2.0 | 5.0 | 0.00 | 0.04 | 0.01 | 92 | 1018.7 |
| 20260831063811 | 67 | 49 | 2.0 | 5.0 | 0.00 | 0.04 | 0.01 | 92 | 1018.7 |
| 20260831063310 | 67 | 34 | 1.0 | 5.0 | 0.00 | 0.04 | 0.01 | 92 | 1018.7 |
| 20260831063031 | 67 | 359 | 2.0 | 5.0 | 0.00 | 0.04 | 0.01 | 92 | 1018.7 |
| 20260831062529 | 67 | 56 | 2.0 | 7.0 | 0.00 | 0.04 | 0.01 | 92 | 1018.7 |
| 20260831061801 | 67 | 39 | 2.0 | 7.0 | 0.00 | 0.04 | 0.01 | 92 | 1018.7 |
| 20260831061258 | 67 | 0 | 1.0 | 4.0 | 0.00 | 0.04 | 0.01 | 92 | 1018.7 |
| 20260831060757 | 68 | 359 | 1.0 | 4.0 | 0.00 | 0.04 | 0.01 | 92 | 1018.6 |
| 20260831060524 | 68 | 7 | 1.0 | 4.0 | 0.00 | 0.04 | 0.01 | 92 | 1018.6 |
| 20260831055757 | 68 | 8 | 0.0 | 4.0 | 0.00 | 0.04 | 0.01 | 92 | 1018.6 |
| 20260831055256 | 68 | 317 | 1.0 | 3.0 | 0.01 | 0.04 | 0.01 | 92 | 1018.6 |
| 20260831054757 | 68 | 314 | 1.0 | 3.0 | 0.01 | 0.04 | 0.01 | 92 | 1018.4 |
| 20260831054516 | 68 | 304 | 0.0 | 2.0 | 0.01 | 0.04 | 0.01 | 92 | 1018.3 |
| 20260831053747 | 68 | 303 | 1.0 | 2.0 | 0.01 | 0.04 | 0.01 | 91 | 1018.3 |
| 20260831053506 | 68 | 303 | 1.0 | 2.0 | 0.01 | 0.04 | 0.01 | 91 | 1018.2 |
| 20260831053230 | 68 | 303 | 0.0 | 3.0 | 0.01 | 0.04 | 0.01 | 91 | 1018.2 |
| 20260831052233 | 69 | 303 | 1.0 | 3.0 | 0.01 | 0.04 | 0.01 | 91 | 1018.0 |
| 20260831051731 | 69 | 275 | 0.0 | 2.0 | 0.01 | 0.04 | 0.01 | 91 | 1018.1 |
| 20260831051230 | 69 | 275 | 0.0 | 2.0 | 0.01 | 0.04 | 0.01 | 91 | 1017.9 |
| 20260831050710 | 69 | 275 | 1.0 | 2.0 | 0.01 | 0.04 | 0.01 | 91 | 1017.8 |
| 20260831050208 | 69 | 274 | 0.0 | 2.0 | 0.01 | 0.04 | 0.01 | 91 | 1017.9 |
| 20260831045708 | 69 | 314 | 0.0 | 2.0 | 0.01 | 0.03 | 0.01 | 91 | 1017.9 |
| 20260831045159 | 69 | 314 | 1.0 | 2.0 | 0.01 | 0.03 | 0.00 | 91 | 1017.8 |
| 20260831045147 | 69 | 314 | 0.0 | 2.0 | 0.01 | 0.03 | 0.00 | 91 | 1017.8 |
| 20260831044154 | 69 | 314 | 0.0 | 2.0 | 0.02 | 0.03 | 0.00 | 91 | 1017.9 |
| 20260831043651 | 69 | 314 | 0.0 | 3.0 | 0.03 | 0.03 | 0.00 | 91 | 1017.9 |
| 20260831043152 | 69 | 314 | 1.0 | 3.0 | 0.03 | 0.03 | 0.00 | 90 | 1018.0 |
| 20260831042649 | 69 | 313 | 1.0 | 4.0 | 0.03 | 0.03 | 0.00 | 90 | 1017.9 |
| 20260831042150 | 69 | 313 | 1.0 | 4.0 | 0.03 | 0.03 | 0.00 | 90 | 1017.9 |
| 20260831041648 | 70 | 243 | 1.0 | 4.0 | 0.03 | 0.03 | 0.00 | 90 | 1017.9 |
| 20260831040646 | 70 | 332 | 1.0 | 4.0 | 0.03 | 0.03 | 0.00 | 89 | 1017.9 |
| 20260831040148 | 70 | 332 | 1.0 | 4.0 | 0.03 | 0.03 | 0.00 | 89 | 1017.8 |
| 20260831035639 | 70 | 334 | 1.0 | 3.0 | 0.02 | 0.02 | 0.02 | 89 | 1017.9 |
| 20260831035137 | 70 | 335 | 1.0 | 5.0 | 0.02 | 0.02 | 0.02 | 88 | 1017.9 |
| 20260831034636 | 70 | 312 | 2.0 | 5.0 | 0.02 | 0.02 | 0.02 | 88 | 1017.9 |
| 20260831034137 | 71 | 321 | 2.0 | 7.0 | 0.01 | 0.01 | 0.02 | 88 | 1018.0 |
| 20260831033903 | 71 | 336 | 2.0 | 7.0 | 0.00 | 0.00 | 0.00 | 87 | 1018.0 |
| 20260831033136 | 71 | 255 | 2.0 | 4.0 | 0.00 | 0.00 | 0.00 | 87 | 1018.1 |
| 20260831032636 | 72 | 311 | 2.0 | 4.0 | 0.00 | 0.00 | 0.00 | 87 | 1018.0 |
| 20260831032133 | 72 | 41 | 1.0 | 4.0 | 0.00 | 0.00 | 0.00 | 86 | 1017.9 |
| 20260831031632 | 72 | 329 | 1.0 | 4.0 | 0.00 | 0.00 | 0.00 | 85 | 1017.9 |
| 20260831031130 | 72 | 262 | 0.0 | 3.0 | 0.00 | 0.00 | 0.00 | 85 | 1017.9 |
| 20260831030631 | 72 | 255 | 1.0 | 4.0 | 0.00 | 0.00 | 0.00 | 85 | 1018.0 |
| 20260831030129 | 72 | 304 | 1.0 | 6.0 | 0.00 | 0.00 | 0.00 | 85 | 1018.0 |
| 20260831025835 | 72 | 313 | 2.0 | 5.0 | 0.00 | 0.00 | 0.00 | 84 | 1017.9 |
| 20260831025718 | 72 | 323 | 1.0 | 6.0 | 0.00 | 0.00 | 0.00 | 84 | 1018.0 |
| 20260831024626 | 72 | 320 | 0.0 | 2.0 | 0.00 | 0.00 | 0.00 | 84 | 1017.9 |
| 20260831024126 | 72 | 320 | 1.0 | 3.0 | 0.00 | 0.00 | 0.00 | 84 | 1018.0 |
| 20260831023623 | 72 | 320 | 0.0 | 2.0 | 0.00 | 0.00 | 0.00 | 84 | 1018.0 |
| 20260831023122 | 72 | 322 | 1.0 | 4.0 | 0.00 | 0.00 | 0.00 | 84 | 1018.0 |
| 20260831022622 | 72 | 322 | 1.0 | 4.0 | 0.00 | 0.00 | 0.00 | 83 | 1017.9 |
| 20260831022122 | 73 | 309 | 1.0 | 3.0 | 0.00 | 0.00 | 0.00 | 83 | 1017.9 |
| 20260831021622 | 73 | 309 | 0.0 | 2.0 | 0.00 | 0.00 | 0.00 | 83 | 1017.9 |
| 20260831021120 | 73 | 309 | 1.0 | 3.0 | 0.00 | 0.00 | 0.00 | 82 | 1017.9 |
| 20260831020832 | 73 | 309 | 0.0 | 6.0 | 0.00 | 0.00 | 0.00 | 82 | 1017.9 |
| 20260831020110 | 73 | 287 | 1.0 | 6.0 | 0.00 | 0.00 | 0.00 | 82 | 1017.9 |
| 20260831015610 | 73 | 255 | 1.0 | 4.0 | 0.00 | 0.00 | 0.00 | 81 | 1017.9 |
| 20260831015110 | 73 | 245 | 1.0 | 5.0 | 0.00 | 0.00 | 0.00 | 81 | 1017.8 |